Home   Weather   Vantaa   Past weeks

Flag for Finland Past Weather in Vantaa, Finland — Yesterday and Last 2 Weeks

Now
61 °F

Passing clouds.


Feels Like: 61 °F
Forecast: 61 / 71 °F
Wind: 5 mph from East

Location: Helsinki-Vantaa

Current Time: Aug 18, 2017 at 11:29:18 pm

Latest Report: Aug 18, 2017 at 10:50 pm


Visibility: N/A

Pressure: 29.92 "Hg

Humidity: 88%

Dew Point: 57 °F

Location of VantaaLocation

Past Weather in Vantaa — Graph

°F

Vantaa Temperature Yesterday

Maximum temperature yesterday: 72 °F (at 3:50 pm)
Minimum temperature yesterday: 59 °F (at 4:50 am)
Average temperature yesterday: 65 °F

High & Low Weather Summary for the Past Weeks

 TemperatureHumidityPressure
High77 °F (Aug 12, 4:20 pm)100% (Aug 4, 12:50 am)30.33 "Hg (Aug 4, 12:50 am)
Low45 °F (Aug 15, 6:20 am)38% (Aug 14, 2:50 pm)29.42 "Hg (Aug 4, 11:20 am)
Average63 °F80%29.92 "Hg
* Reported Aug 3 10:20 pm — Aug 18 10:20 pm, Vantaa. Weather by CustomWeather, © 2017

Note: Actual official high and low records may vary slightly from our data, if they occured in-between our weather recording intervals... More about our weather records

Advertising

Vantaa Weather History for the Previous 24 Hours

Scroll right to see more
 ConditionsComfort  
Time TempWeatherWind HumidityBarometerVisibility
10:20 pm
Fri, Aug 18
61 °FLight rain. Passing clouds.7 mph88%29.92 "HgN/A
9:50 pm61 °FLight rain. Passing clouds.8 mph88%29.95 "HgN/A
9:20 pm63 °FLight rain. Passing clouds.12 mph83%29.95 "HgN/A
8:50 pm63 °FLight rain. Partly sunny.13 mph88%29.95 "HgN/A
8:20 pm64 °FLight rain. Partly sunny.15 mph78%29.95 "HgN/A
7:50 pm66 °FBroken clouds.6 mph68%29.95 "HgN/A
7:20 pm66 °FLight rain. Partly sunny.6 mph68%29.95 "HgN/A
6:50 pm66 °FLight rain. Partly sunny.6 mph64%29.95 "HgN/A
6:20 pm66 °FPartly sunny.7 mph68%29.95 "HgN/A
5:50 pm66 °FPartly sunny.9 mph68%29.95 "HgN/A
5:20 pm66 °FBroken clouds.10 mph68%29.95 "HgN/A
4:50 pm68 °FPartly sunny.9 mph56%29.95 "HgN/A
3:50 pm68 °FPartly sunny.9 mph56%29.98 "HgN/A
3:20 pm70 °FPartly sunny.12 mph57%29.98 "HgN/A
2:50 pm70 °FPartly sunny.10 mph64%29.98 "HgN/A
2:20 pm70 °FBroken clouds.10 mph69%29.98 "HgN/A
1:50 pm70 °FPartly sunny.8 mph73%29.98 "HgN/A
1:20 pm68 °FPartly sunny.10 mph78%29.98 "HgN/A
12:50 pm68 °FBroken clouds.9 mph78%29.98 "HgN/A
12:20 pm68 °FBroken clouds.9 mph78%29.98 "HgN/A
11:50 am68 °FPartly sunny.8 mph78%29.98 "HgN/A
11:20 am66 °FBroken clouds.8 mph88%29.98 "HgN/A
10:50 am66 °FBroken clouds.9 mph88%29.98 "HgN/A
10:20 am66 °FPartly sunny.7 mph88%29.98 "HgN/A
9:50 am64 °FPartly sunny.6 mph94%30.01 "HgN/A
9:20 am64 °FPartly sunny.2 mph88%29.98 "HgN/A
8:50 am63 °FFog.2 mph94%29.98 "Hg2 mi
8:20 am61 °FFog.3 mph100%29.98 "Hg1 mi
7:50 am61 °FFog.3 mph100%29.98 "Hg0 mi
7:20 am61 °FPartly sunny.3 mph94%29.98 "HgN/A
6:50 am61 °FPartly sunny.1 mph94%29.98 "HgN/A
6:20 am59 °FPartly sunny.1 mph100%29.98 "HgN/A
5:50 am59 °FLow clouds.5 mph100%29.98 "HgN/A
5:20 am59 °FLow clouds.1 mph100%30.01 "HgN/A
4:50 am61 °FPassing clouds.1 mph94%29.98 "HgN/A
4:20 am59 °FPassing clouds.3 mph100%29.98 "HgN/A
3:50 am59 °FFog.2 mph100%29.98 "HgN/A
3:20 am59 °FPassing clouds.1 mph100%30.01 "HgN/A
2:50 am61 °FClear.3 mph94%30.01 "Hg10 mi
2:20 am61 °FClear.3 mph100%30.01 "Hg10 mi
1:50 am63 °FPassing clouds.2 mph94%30.01 "HgN/A
1:20 am63 °FPartly cloudy.3 mph94%30.01 "HgN/A
12:50 am63 °FPassing clouds.2 mph94%30.01 "HgN/A
12:20 am61 °FPassing clouds.5 mph100%30.01 "HgN/A
11:50 pm
Thu, Aug 17
63 °FClear.3 mph94%30.01 "Hg10 mi
11:20 pm63 °FClear.6 mph94%30.01 "Hg10 mi
Weather by CustomWeather, © 2017

See weather overviewHow to use our weather pages